Regional Weather Roundup
Issued by NWS

Home | Current Version | Previous Version | Text Only | Print | Product List | Glossary Off
Versions: 1 2 3 4 5 6 7 8 9 10 11 12 13 14 15 16 17 18 19 20 21 22 23 24 25 26 27 28 29 30 31 32 33 34 35 36 37 38 39 40 41 42 43 44 45 46 47 48 49 50

968
ASUS44 KJAN 250103
RWRMS

MISSISSIPPI HOURLY WEATHER ROUNDUP
NATIONAL WEATHER SERVICE JACKSON MS
700 PM CST SAT JAN 24 2015

NOTE: "FAIR: INDICATES FEW OR NO CLOUDS BELOW 12,000 FEET WITH NO
SIGNIFICANT WEATHER AND/OR OBSTRUCTIONS TO VISIBILITY.

MSZ001>002-007>008-010>013-018>021-025>028-034>036-250200-
NORTHWEST MISSISSIPPI

CITY           SKY/WX    TMP DP  RH WIND       PRES   REMARKS
CLARKSDALE     FAIR      46  39  76 S7        29.96F
CLEVELAND      FAIR      46  42  87 S6        29.97S
GREENWOOD      CLEAR     44  36  73 S3        30.00R
GREENVILLE     CLEAR     43  34  70 S8        29.98S
GRENADA        FAIR      45  34  65 CALM      29.99S
OLIVE BRANCH   PTCLDY    41  36  81 S6        29.93S
OXFORD         FAIR      43  32  65 SW6       29.97F
TUNICA         CLEAR     43  34  70 S7        29.95S
$$

MSZ003>006-009-014>017-022>024-029>033-037>039-250200-
NORTHEAST MISSISSIPPI

CITY           SKY/WX    TMP DP  RH WIND       PRES   REMARKS
COLUMBUS AFB   CLEAR     38  31  75 S3        29.99S
CORINTH        FAIR      45  30  57 SW7       29.93S
GOLDN TRIANGLE CLEAR     43  30  61 SW6       29.99S
STARKVILLE     FAIR      36  32  87 CALM      30.00S
TUPELO         CLEAR     43  30  60 S9        29.97R
$$

MSZ040-058-250200-
CENTRAL MISSISSIPPI

CITY           SKY/WX    TMP DP  RH WIND       PRES   REMARKS
JACKSON INTL   CLEAR     38  33  82 CALM      30.04R
JACKSON HAWKNS CLEAR     44  34  67 CALM      30.04R
MERIDIAN KEY   CLEAR     38  34  85 CALM      30.04R
MERIDIAN NAS   CLEAR     40  33  76 S5        30.04R
RAYMOND        FAIR      41  37  87 MISG      30.04R
VICKSBURG      CLEAR     49  37  63 S3        30.03S
$$

MSZ059>079-250200-
SOUTH MISSISSIPPI

CITY           SKY/WX    TMP DP  RH WIND       PRES   REMARKS
BROOKHAVEN     FAIR      43  37  81 CALM      30.06S
HATTIESBURG    PTCLDY    41  37  86 CALM      30.07R
MCCOMB         PTCLDY    43  35  73 SW3       30.06S
NATCHEZ        PTCLDY    46  34  61 S6        30.06R
PINE BELT      CLEAR     39  34  81 SW3       30.06S
$$

MSZ080>082-250200-
COASTAL MISSISSIPPI

CITY           SKY/WX    TMP DP  RH WIND       PRES   REMARKS
BAY ST LOUIS   CLEAR     43  36  75 CALM      30.09S
BILOXI         CLEAR     46  41  84 W8        30.08R
PASCAGOULA     CLEAR     44  39  82 W3        30.08S
GULFPORT       CLEAR     47  36  65 W5        30.08R
$$



USA.gov is the U.S. government's official web portal to all federal, state and local government web resources and services.